Tracking 19847 objects as of 16-Sep-2019
HD Live streaming from Space Station
objects crossing your sky now

FENGYUN 1C DEB

Track FENGYUN 1C DEB now!
10-day predictions


NORAD ID: 33700
Int'l Code: 1999-025DGM
Perigee: 558.0 km
Apogee: 705.6 km
Inclination: 99.1 °
Period: 97.2 minutes
Semi major axis: 7002 km
RCS: 0.0108 m2 (small)
Launch date: May 10, 1999
Source: People's Republic of China (PRC)
Launch site: Taiyaun Space Center, China (TSC)

Note: This is SATELLITE DEBRIS
aabbcc
Your satellite tracking list
Your tracking list is empty




NASA's NSSDC Master Catalog

Two Line Element Set (TLE):
1 33700U 99025DGM 19258.60001456 +.00001422 +00000-0 +17371-3 0  9996
2 33700 099.1318 049.2908 0105366 037.1141 323.7293 14.81481389223537
Source of the keplerian elements: AFSPC